Wind_Speed
32 32 33 34 35 35 36 36 37 37 38 39 39 40 41 41 41 41 41 41 41 41 41 42 42 42 42 42 42 42 42 43 43 43 43 43 44 43 43 44 44 44 45
33 34 35 35 37 38 39 39 40 41 41 42 43 44 45 45 46 46 46 46 46 45 46 46 46 46 46 46 46 46 46 46 46 46 46 46 46 46 46 46 46 46 46
34 35 35 36 38 39 39 40 41 42 43 45 46 47 48 48 49 49 49 49 49 50 50 50 50 50 50 50 50 50 50 50 49 49 49 49 49 49 48 48 48 47 47
34 35 36 37 38 39 40 41 42 43 44 46 47 48 49 50 51 51 52 52 52 53 53 53 54 54 54 54 54 54 53 53 53 53 52 52 51 51 51 50 50 49 49
35 36 36 38 39 40 41 42 43 44 45 47 48 49 50 51 52 53 53 54 54 55 55 56 57 57 57 57 57 57 57 56 56 55 55 54 54 53 53 52 52 51 51
35 36 36 38 39 40 41 43 44 45 46 48 49 50 51 52 53 53 54 55 56 56 57 58 59 59 60 60 60 60 60 60 59 58 58 57 56 56 55 54 54 54 53
36 37 37 39 40 41 42 44 45 46 47 49 50 51 52 52 53 54 55 57 58 59 60 61 62 62 62 63 63 63 63 63 62 61 61 60 59 58 58 57 56 55 55
36 37 38 40 41 42 43 45 46 48 48 50 52 53 53 53 54 55 57 59 60 62 63 64 65 65 66 66 66 66 66 66 66 65 64 64 63 62 61 60 59 57 57
36 37 39 40 42 43 44 46 48 49 50 52 54 56 58 58 58 58 59 61 63 65 66 67 68 69 69 70 69 69 69 69 69 68 68 67 66 65 64 63 61 60 59
37 39 40 42 43 45 47 49 51 53 55 56 58 60 63 65 66 65 64 65 66 67 69 71 72 73 73 73 73 73 73 73 72 71 71 70 69 68 67 66 64 63 62
39 41 43 45 47 49 51 53 56 58 60 62 64 66 68 70 72 74 73 72 72 72 73 74 75 76 77 77 77 77 77 77 77 76 75 74 73 72 70 69 68 66 65
43 45 47 49 52 54 56 59 61 63 66 68 70 72 74 76 77 80 81 80 80 80 80 80 79 80 80 81 81 81 81 81 80 80 78 77 76 75 74 72 71 69 68
47 50 52 54 57 59 62 64 66 69 71 73 76 78 80 81 83 84 86 86 86 85 86 86 85 84 84 84 84 84 84 84 84 83 82 81 79 78 77 76 74 73 71
52 54 57 59 62 64 67 69 71 74 76 78 80 82 84 85 86 87 88 90 90 89 89 88 89 89 89 88 88 88 88 87 87 86 85 84 82 81 80 78 77 75 74
56 59 61 64 66 69 72 74 76 78 80 82 83 84 86 86 87 88 90 91 92 92 90 88 90 91 92 91 90 90 90 89 88 87 87 85 84 83 82 81 79 77 76
61 64 66 69 71 74 76 78 80 82 83 85 86 87 88 88 89 89 90 90 91 92 91 87 88 89 91 90 89 89 89 88 88 87 87 86 85 84 83 82 81 80 78
66 68 71 73 75 78 80 82 83 85 86 87 88 88 88 88 88 88 87 87 87 87 87 82 81 83 84 84 83 83 83 84 84 83 83 83 83 83 82 81 81 80 79
70 73 75 78 80 82 84 85 87 88 88 88 87 87 86 84 83 81 80 79 78 77 77 74 71 72 74 74 75 74 74 75 76 76 76 77 78 78 79 79 79 78 78
74 77 79 81 83 85 87 88 88 88 88 86 84 82 80 77 75 73 71 70 69 69 69 67 64 64 65 66 67 67 66 67 67 68 69 70 72 73 74 75 75 76 75
78 80 83 85 86 88 88 88 87 86 83 81 78 75 71 69 67 65 64 63 63 63 63 62 59 58 58 59 61 61 61 62 62 63 64 65 66 67 68 69 70 71 71
81 83 85 87 88 88 87 86 83 80 77 73 69 66 64 62 61 60 59 58 58 58 58 57 55 54 53 54 55 56 57 58 59 59 60 61 62 63 64 65 65 66 67
83 86 87 88 87 85 83 80 77 73 69 66 63 61 59 58 56 56 56 55 55 54 54 53 52 50 49 50 51 52 53 54 55 56 58 58 59 59 61 62 62 63 64
86 87 87 87 84 80 76 72 69 66 62 60 58 56 54 53 52 52 51 50 50 50 51 51 49 47 47 47 49 50 50 50 50 52 54 54 55 55 56 58 59 60 61
87 87 85 82 78 73 69 66 62 59 56 55 53 52 50 48 48 47 47 46 46 47 48 48 47 46 45 45 46 47 47 48 47 48 49 49 50 50 51 53 55 57 59
86 84 80 76 71 66 63 60 57 54 52 51 50 48 47 46 45 45 45 44 44 44 45 45 45 44 43 43 43 43 43 44 44 44 46 46 48 50 51 51 51 54 56
83 79 73 68 64 60 57 55 53 51 50 48 46 45 45 44 44 44 44 44 43 43 43 42 42 42 41 41 41 41 41 42 42 42 43 45 47 49 49 50 52 53 54
Wind_Direction
272 271 271 271 270 270 270 270 271 271 271 271 272 272 273 273 273 274 274 275 275 276 276 277 276 276 276 276 276 276 276 276 276 276 276 276 276 276 275 275 274 272 270
273 273 273 273 272 272 272 272 272 272 272 272 273 273 273 274 274 275 275 275 275 275 275 275 275 275 275 275 275 275 275 275 275 275 275 276 276 276 275 275 274 273 271
276 276 275 275 274 274 275 274 274 274 274 274 274 274 274 274 274 274 274 274 274 274 274 274 274 274 274 274 274 274 274 274 274 274 274 275 275 275 275 275 275 274 272
279 278 277 277 277 276 276 276 275 275 274 274 274 274 274 274 274 274 274 274 274 273 273 273 273 273 273 273 273 273 273 273 273 273 273 274 274 274 274 274 274 274 273
281 280 280 279 279 279 279 278 277 277 276 276 275 274 274 274 274 274 274 274 273 273 272 272 272 272 272 272 272 272 272 272 272 272 273 273 273 273 273 273 274 274 273
283 283 282 282 281 281 281 280 279 279 278 277 276 276 275 275 275 275 275 274 273 273 272 272 271 271 271 271 271 271 271 271 271 271 271 271 272 272 272 272 273 273 273
285 285 284 284 284 284 284 283 282 281 280 279 279 278 277 277 276 276 275 274 274 273 273 272 272 271 271 271 270 270 270 270 270 270 270 270 270 270 271 271 271 272 272
287 287 287 287 287 287 286 286 285 284 283 282 282 281 280 278 277 277 276 276 275 275 274 273 272 272 271 270 270 270 269 269 269 269 269 269 269 269 269 269 269 270 270
290 290 290 290 290 289 289 288 287 287 286 285 285 284 283 282 279 278 276 276 276 275 275 274 273 272 271 271 270 270 269 269 268 268 268 267 267 267 268 268 268 268 269
292 292 292 292 292 292 291 290 290 289 288 288 287 286 286 285 284 282 279 277 275 275 274 274 273 272 271 271 270 269 268 268 267 267 266 266 266 266 266 266 266 267 267
293 293 294 293 293 293 292 291 291 290 290 289 288 287 286 286 285 284 282 280 278 276 274 273 272 271 271 270 269 268 267 266 266 265 265 265 265 265 265 265 265 265 265
294 294 294 294 294 293 293 292 292 291 290 290 289 288 287 286 285 284 283 282 280 278 276 275 273 271 269 268 267 266 265 265 264 264 263 263 263 263 263 263 263 263 263
295 295 296 295 295 295 294 293 293 292 291 290 290 289 288 286 285 284 283 281 280 279 277 276 274 272 270 268 267 265 264 263 263 262 262 261 261 261 261 261 261 261 262
296 297 297 297 296 296 295 294 294 293 292 291 290 289 288 287 286 284 283 282 280 279 277 276 274 272 270 268 267 265 263 262 261 261 260 259 259 259 259 259 259 260 260
297 298 298 298 297 297 297 296 295 295 293 292 291 290 289 288 286 285 284 283 281 280 277 276 274 272 270 268 267 265 264 262 261 260 259 258 258 257 257 257 258 258 258
299 299 299 299 299 299 298 298 297 296 295 294 293 292 290 289 287 286 285 283 281 280 278 276 274 273 271 268 267 266 265 263 261 260 259 257 257 256 256 256 256 256 257
301 301 301 301 301 301 300 299 298 297 296 295 294 292 291 290 288 286 285 284 282 281 280 278 275 273 272 270 268 266 265 263 262 260 259 257 256 255 254 254 254 255 255
303 303 303 303 303 302 302 301 300 298 297 296 295 293 292 290 289 287 286 285 284 283 282 281 277 275 273 271 269 267 266 264 262 260 259 257 256 254 253 253 253 253 253
305 305 305 305 304 304 303 302 301 300 299 298 296 295 293 291 290 288 287 285 284 284 283 282 280 276 274 272 270 268 266 265 262 260 258 257 255 253 252 252 252 252 252
306 306 306 306 305 305 304 303 302 301 300 299 297 296 294 292 290 289 287 286 286 285 285 284 283 279 276 273 271 269 266 264 262 259 257 256 254 253 252 251 251 251 251
307 307 307 307 307 306 305 304 302 301 300 299 297 295 293 291 290 289 288 287 286 286 285 285 283 280 277 274 271 269 267 264 261 259 257 255 254 252 251 250 250 249 249
309 309 308 308 308 307 305 304 302 302 301 299 297 295 293 291 290 289 288 287 287 286 286 284 283 280 277 274 271 269 268 265 263 260 257 254 253 252 250 249 248 248 248
310 310 309 309 308 307 305 303 302 301 300 299 297 296 294 292 291 290 288 287 287 287 286 285 283 280 277 274 272 270 268 266 263 260 258 255 254 252 251 249 248 247 247
311 311 310 310 308 307 305 303 302 301 301 300 299 297 295 293 292 291 290 288 288 288 287 285 284 281 278 275 273 271 269 266 264 262 259 257 255 253 252 250 248 247 247
312 312 311 310 308 307 305 304 302 302 302 301 299 298 297 295 293 292 291 290 289 289 287 285 284 282 279 277 274 272 269 267 264 261 259 258 255 254 252 251 250 248 248
313 312 311 310 308 307 306 304 303 303 303 302 300 299 297 295 294 292 292 291 291 290 287 285 283 281 279 277 275 272 270 268 265 262 259 258 257 255 254 252 250 250 249
Height
5828 5827 5827 5826 5825 5824 5823 5823 5822 5821 5820 5819 5818 5817 5816 5816 5815 5814 5814 5813 5812 5811 5810 5809 5808 5807 5806 5805 5804 5804 5803 5802 5801 5800 5800 5799 5798 5798 5797 5797 5796 5796 5796
5822 5821 5820 5819 5817 5816 5816 5815 5814 5813 5812 5810 5809 5808 5807 5806 5805 5804 5803 5803 5802 5801 5800 5798 5797 5796 5795 5794 5794 5793 5792 5791 5790 5790 5789 5788 5788 5787 5786 5786 5785 5785 5785
5814 5813 5812 5811 5809 5808 5807 5806 5805 5803 5802 5801 5799 5797 5796 5795 5794 5793 5792 5791 5790 5789 5788 5787 5785 5784 5783 5782 5782 5781 5780 5779 5779 5778 5777 5777 5776 5775 5775 5774 5774 5774 5774
5807 5806 5804 5802 5800 5799 5798 5796 5795 5793 5792 5790 5788 5786 5785 5784 5782 5781 5780 5779 5778 5776 5775 5774 5772 5771 5770 5769 5768 5768 5767 5766 5766 5765 5765 5764 5763 5763 5762 5762 5762 5761 5761
5799 5797 5796 5794 5792 5790 5788 5786 5784 5782 5781 5779 5776 5775 5773 5771 5770 5768 5767 5765 5764 5762 5761 5759 5758 5757 5756 5755 5754 5753 5753 5752 5752 5751 5751 5750 5750 5750 5749 5749 5749 5748 5748
5791 5789 5787 5785 5782 5781 5778 5776 5773 5771 5769 5766 5764 5763 5761 5759 5757 5755 5754 5751 5749 5748 5746 5744 5743 5742 5741 5740 5739 5738 5738 5737 5737 5736 5736 5736 5736 5736 5735 5735 5735 5735 5735
5783 5781 5778 5776 5773 5771 5768 5765 5762 5760 5757 5754 5751 5750 5748 5746 5744 5742 5739 5737 5735 5733 5731 5729 5727 5726 5725 5724 5723 5722 5721 5721 5721 5721 5721 5721 5721 5721 5721 5721 5721 5721 5721
5774 5772 5769 5766 5763 5761 5758 5754 5751 5748 5745 5741 5738 5735 5734 5734 5731 5729 5725 5722 5720 5717 5715 5713 5711 5709 5708 5706 5706 5705 5704 5704 5704 5704 5704 5704 5705 5705 5705 5706 5706 5707 5707
5765 5763 5759 5756 5753 5750 5747 5743 5739 5736 5733 5729 5725 5721 5717 5716 5715 5714 5712 5708 5704 5700 5698 5695 5693 5691 5689 5688 5688 5687 5686 5685 5685 5686 5686 5687 5687 5688 5689 5690 5690 5691 5692
5757 5753 5750 5747 5743 5739 5736 5731 5727 5723 5719 5715 5710 5706 5702 5697 5694 5694 5694 5691 5688 5683 5680 5676 5673 5671 5669 5668 5668 5668 5666 5666 5666 5666 5667 5667 5668 5670 5671 5672 5673 5674 5675
5747 5744 5740 5736 5732 5728 5724 5719 5714 5709 5704 5700 5694 5690 5685 5680 5674 5670 5671 5670 5666 5664 5661 5657 5653 5651 5648 5646 5646 5646 5645 5644 5644 5645 5646 5647 5648 5650 5652 5653 5655 5657 5658
5737 5733 5729 5724 5720 5715 5710 5705 5700 5694 5688 5683 5677 5671 5665 5660 5655 5648 5646 5645 5642 5640 5636 5634 5632 5629 5625 5623 5622 5622 5621 5620 5621 5622 5624 5626 5627 5629 5631 5633 5635 5638 5640
5727 5722 5717 5712 5706 5701 5695 5689 5683 5677 5671 5664 5657 5651 5644 5638 5631 5625 5620 5618 5615 5614 5611 5609 5606 5603 5600 5598 5597 5595 5595 5595 5596 5598 5600 5602 5605 5607 5610 5612 5615 5618 5620
5715 5709 5703 5698 5691 5685 5679 5672 5665 5658 5651 5643 5636 5628 5621 5614 5606 5600 5593 5588 5586 5587 5585 5583 5578 5575 5572 5570 5569 5567 5568 5569 5570 5572 5575 5578 5581 5584 5587 5590 5593 5597 5600
5701 5695 5688 5682 5675 5668 5660 5653 5646 5638 5629 5621 5613 5604 5596 5589 5581 5573 5566 5560 5554 5553 5557 5558 5550 5545 5542 5542 5540 5537 5539 5541 5543 5546 5549 5552 5556 5559 5563 5567 5571 5575 5579
5685 5679 5672 5664 5657 5649 5640 5632 5624 5615 5606 5597 5588 5579 5570 5562 5553 5546 5538 5531 5524 5519 5521 5531 5522 5515 5510 5512 5511 5509 5510 5511 5514 5518 5522 5526 5531 5535 5539 5543 5548 5552 5556
5669 5661 5654 5646 5637 5628 5619 5609 5600 5591 5581 5572 5562 5553 5544 5534 5526 5518 5510 5504 5497 5490 5487 5498 5495 5488 5482 5482 5482 5482 5482 5483 5487 5491 5494 5499 5504 5510 5514 5519 5524 5529 5533
5651 5643 5634 5625 5616 5606 5596 5585 5576 5566 5556 5546 5536 5526 5517 5507 5500 5492 5484 5478 5472 5466 5461 5464 5470 5463 5458 5456 5456 5457 5457 5458 5461 5465 5468 5473 5478 5484 5490 5495 5500 5505 5511
5632 5623 5614 5604 5594 5583 5572 5561 5550 5540 5530 5520 5510 5500 5492 5483 5476 5469 5462 5456 5451 5446 5441 5439 5443 5441 5437 5434 5433 5435 5435 5436 5438 5441 5444 5449 5454 5460 5466 5472 5477 5483 5489
5613 5603 5592 5582 5570 5559 5547 5536 5525 5514 5505 5495 5485 5477 5469 5461 5454 5448 5442 5437 5432 5428 5423 5420 5421 5420 5418 5416 5413 5415 5415 5416 5418 5420 5423 5428 5432 5437 5443 5450 5456 5462 5467
5592 5581 5570 5559 5547 5534 5522 5511 5500 5491 5482 5473 5465 5456 5449 5442 5436 5430 5425 5420 5415 5411 5407 5403 5402 5401 5400 5397 5396 5396 5396 5397 5399 5401 5404 5409 5412 5417 5422 5428 5434 5440 5446
5572 5560 5548 5536 5524 5511 5499 5487 5477 5469 5461 5453 5446 5438 5431 5425 5419 5414 5408 5404 5399 5395 5391 5388 5386 5384 5383 5381 5380 5379 5379 5380 5383 5386 5386 5390 5393 5398 5403 5409 5415 5420 5425
5551 5539 5526 5513 5501 5489 5477 5467 5457 5448 5442 5435 5427 5421 5415 5409 5403 5398 5393 5389 5385 5380 5376 5373 5370 5369 5367 5366 5364 5364 5363 5364 5366 5367 5369 5373 5377 5381 5385 5390 5395 5401 5406
5530 5517 5504 5491 5480 5469 5458 5448 5439 5432 5425 5419 5412 5405 5399 5394 5389 5383 5379 5375 5372 5367 5362 5358 5356 5354 5353 5351 5350 5349 5349 5349 5351 5353 5355 5358 5361 5365 5368 5373 5378 5383 5387
5509 5496 5483 5471 5460 5451 5440 5431 5423 5417 5411 5404 5398 5391 5385 5380 5375 5370 5366 5362 5359 5355 5349 5345 5342 5340 5339 5337 5336 5335 5335 5335 5337 5339 5341 5343 5346 5349 5353 5357 5361 5365 5370
5487 5476 5464 5453 5442 5434 5425 5416 5408 5402 5397 5391 5385 5379 5373 5367 5362 5357 5352 5349 5345 5341 5336 5333 5330 5328 5326 5325 5323 5322 5322 5322 5323 5326 5328 5330 5331 5333 5337 5342 5345 5349 5353